Location: Cicognara
(44.9500°N, 10.4667°E)
Time: 09:28:24
(UTC+00:00)

Cosmos 2333 Rocket - Pass Details

Date: 20 June 2021
Orbit: 841 x 861 km, 70.8° (Epoch: 04 August)

Event Time Altitude Azimuth Distance (km) Brightness Sun altitude
Rises 20:15:48 0° 188° (S) 3,420 5.0 -9.8°
Reaches altitude 10° 20:18:18 10° 183° (S) 2,486 4.2 -10.1°
Maximum altitude 20:23:49 51° 109° (ESE) 1,068 2.4 -10.7°
Drops below altitude 10° 20:29:20 10° 35° (NE) 2,491 4.9 -11.3°
Sets 20:31:50 0° 31° (NNE) 3,428 5.6 -11.6°
